Wind_Speed
73 82 80 79 80 80 75 71 68 66 70 65 65 64 59 58 57 60 61 59 61 61 59 54 55 57 62 65 60 59 61 62 65 63 58 61 57 57 55 53 54 52 61 62
70 71 81 82 85 79 79 73 69 75 74 65 66 65 66 62 66 68 65 60 64 60 62 60 60 62 61 61 63 65 69 67 68 63 59 60 59 56 53 52 56 66 65 66
70 76 83 85 90 84 82 82 83 83 76 71 73 72 63 64 62 62 66 63 62 63 67 63 68 62 65 64 66 68 68 76 68 62 63 61 56 54 55 59 63 64 67 71
77 79 78 79 82 93 83 83 81 85 82 74 76 70 68 66 65 59 65 72 74 71 68 66 64 65 70 69 67 73 74 71 65 62 59 57 53 57 60 62 64 69 77 77
83 80 76 72 80 89 89 86 73 77 83 79 77 76 80 70 68 63 74 77 72 76 71 64 67 70 70 77 73 69 69 64 63 59 59 60 63 65 68 70 76 79 81 82
91 86 83 78 80 88 93 84 86 73 80 63 63 60 58 61 63 63 71 73 69 69 67 70 70 74 78 72 69 67 66 63 62 63 64 70 72 74 76 79 84 85 85 82
87 83 79 76 79 81 88 86 86 88 74 77 79 58 59 69 71 71 70 72 75 77 74 75 74 71 70 68 70 65 66 67 67 68 70 76 83 84 86 88 89 92 86 89
76 73 76 72 75 74 77 83 83 83 80 76 79 74 66 67 58 60 68 77 74 75 72 72 71 71 71 70 72 76 74 75 79 84 84 84 87 90 94 95 97 94 94 95
83 77 76 74 74 77 76 77 84 85 80 79 77 70 64 74 77 77 72 73 77 76 71 75 75 79 84 84 88 89 90 92 91 89 92 90 92 95 97 97 95 93 98 102
80 86 86 82 82 81 78 81 82 83 82 80 75 73 69 72 72 71 73 77 77 77 78 79 82 85 85 86 86 88 92 95 95 95 92 96 98 98 98 96 100 102 101 100
84 86 86 87 86 80 76 76 77 80 84 80 80 78 77 72 75 77 80 77 76 77 80 81 82 84 89 91 94 94 94 96 96 101 101 99 100 100 99 101 103 104 103 101
82 78 83 84 84 81 84 77 81 80 74 80 84 76 76 76 78 76 75 72 70 74 78 83 88 89 89 91 92 92 92 98 100 100 101 102 100 103 105 105 109 106 105 105
82 83 81 83 87 89 82 76 78 80 79 75 80 74 85 86 83 82 81 80 83 86 87 87 87 90 91 92 95 100 101 101 103 101 100 102 102 101 106 109 109 106 108 113
91 82 77 78 76 83 87 88 88 88 83 81 80 75 88 86 96 94 91 92 91 91 93 92 92 95 99 100 98 100 100 100 102 103 102 101 104 107 108 108 110 114 115 118
81 81 82 83 84 87 87 91 93 93 80 93 82 92 89 94 94 100 102 99 100 100 100 100 100 98 98 96 96 99 101 102 103 103 103 105 108 111 111 115 119 120 121 119
84 74 81 87 89 89 91 91 89 87 92 87 88 89 85 85 92 95 97 100 101 102 101 99 96 100 102 101 101 103 105 106 106 106 108 112 114 118 120 122 122 122 120 114
90 87 84 87 90 93 93 79 87 88 90 89 92 81 92 93 95 98 100 98 98 100 99 99 98 100 103 105 107 107 107 110 112 114 117 120 124 123 123 123 123 111 105 89
94 98 98 94 95 98 83 90 91 91 90 91 92 90 94 96 98 96 93 95 97 99 100 103 105 106 107 109 111 113 115 117 120 122 125 124 122 125 123 116 103 89 84 82
99 98 99 95 96 94 87 89 91 96 95 100 98 95 98 99 101 94 99 104 106 110 110 108 106 108 111 115 118 118 119 122 122 122 122 116 109 104 96 89 85 82 81 81
105 100 101 99 100 96 94 101 96 96 92 94 96 93 97 100 100 95 107 108 107 106 107 109 112 111 113 116 118 115 115 114 111 105 94 88 84 81 78 78 79 79 77 74
102 105 103 103 99 91 93 97 102 105 102 106 109 108 109 108 108 107 110 111 115 116 116 117 118 111 102 93 95 93 89 84 76 75 76 77 76 73 74 76 76 79 81 79
109 104 103 108 108 100 100 103 103 105 107 107 110 115 116 117 114 116 118 118 119 113 120 107 96 86 78 76 78 74 73 73 70 69 71 70 72 76 77 76 77 79 81 84
116 112 110 110 104 105 105 104 104 108 111 113 112 112 114 112 114 115 114 111 110 113 98 81 76 71 69 70 71 72 67 70 71 70 71 74 75 77 77 80 81 81 83 86
118 116 118 115 110 111 112 114 115 117 114 111 117 116 116 115 114 115 116 116 95 86 65 65 66 58 59 63 67 65 67 69 73 75 76 77 77 77 79 79 78 78 81 79
105 108 108 113 114 116 118 115 114 116 117 118 114 114 115 117 110 110 99 83 75 71 67 61 63 66 68 66 67 72 68 74 74 76 79 80 81 82 86 89 90 91 87 89
104 101 106 106 104 104 104 105 100 105 106 104 102 93 90 96 89 83 82 81 77 70 74 77 73 69 68 78 71 69 72 67 70 77 79 83 84 83 87 88 90 90 90 91
Wind_Direction
234 232 233 225 224 228 228 232 235 237 245 242 237 240 250 244 250 249 254 261 266 268 271 267 280 283 281 282 280 281 291 296 299 296 295 295 295 297 297 300 310 309 313 312
238 234 235 229 221 225 227 222 233 239 244 243 238 245 241 250 254 252 256 261 265 269 270 266 274 280 274 278 279 286 286 296 297 295 294 293 293 293 295 300 306 311 313 315
236 233 233 231 225 223 223 226 232 242 244 241 242 245 251 248 247 257 257 257 260 263 263 266 273 275 275 279 281 284 290 296 295 292 291 290 289 291 294 302 308 310 310 310
232 233 232 233 232 226 225 230 234 239 241 242 245 248 250 257 250 258 257 255 260 261 266 269 277 276 270 271 277 285 289 292 286 285 286 287 288 294 299 302 304 308 311 313
234 235 236 236 236 230 228 226 230 233 240 246 248 251 248 255 250 257 256 257 261 261 260 267 276 270 272 275 273 284 284 283 281 285 289 286 292 298 300 302 306 309 310 312
234 234 237 235 235 235 230 231 231 230 230 238 239 241 245 246 243 250 253 254 258 258 261 270 273 270 271 270 273 278 274 276 279 282 288 291 296 296 300 303 307 307 311 311
234 236 236 237 239 236 236 235 233 234 238 237 244 248 249 251 250 251 253 255 261 266 266 267 268 262 265 271 274 272 274 275 279 282 287 291 297 300 302 304 307 307 308 308
229 238 236 234 240 242 241 239 239 242 245 243 242 243 249 254 249 250 253 254 255 255 257 259 260 266 270 270 272 275 276 279 283 284 289 293 296 298 300 303 305 305 307 308
229 229 226 226 233 236 239 240 240 242 245 247 247 251 252 256 259 256 252 254 260 259 258 261 262 264 268 268 275 277 280 282 285 291 290 293 295 298 301 302 304 305 305 306
227 227 226 226 231 235 237 238 240 241 244 246 246 249 250 251 257 261 259 259 261 262 263 264 268 270 271 273 276 279 281 285 287 290 294 295 297 300 302 302 302 303 305 306
227 233 234 230 232 234 237 240 242 243 245 246 245 247 248 250 256 259 262 263 263 266 268 269 272 274 275 278 280 283 284 287 289 290 293 296 298 300 301 300 301 304 304 304
226 233 234 233 233 234 236 240 242 241 245 247 246 246 248 251 252 256 261 263 263 264 267 270 273 277 278 281 284 287 288 288 293 295 295 296 297 297 298 300 302 301 302 302
228 232 233 231 232 235 230 234 240 239 240 245 247 244 249 249 251 251 253 256 261 266 270 272 274 277 279 281 283 285 289 290 291 294 296 295 295 296 298 300 299 300 301 302
228 227 233 232 233 236 237 234 239 239 236 243 247 242 245 249 252 255 258 259 261 265 268 272 274 276 279 284 287 286 289 291 291 293 294 293 294 297 296 296 299 298 299 299
229 229 232 235 234 235 238 235 237 241 237 243 247 252 254 254 256 257 258 261 264 267 271 276 279 280 281 283 285 286 288 291 292 292 292 291 292 293 294 295 295 295 295 295
236 232 236 237 237 237 238 239 245 247 247 250 253 254 255 256 257 259 261 264 267 271 274 275 276 278 281 284 287 287 289 290 290 287 288 290 290 292 292 292 293 293 293 294
231 231 231 236 238 239 241 245 243 244 247 247 247 247 250 257 262 263 265 267 268 270 272 274 275 276 277 279 282 283 285 285 286 286 287 288 288 289 289 289 289 290 291 290
233 236 235 233 237 238 239 244 245 247 248 250 250 250 253 256 259 263 267 266 267 269 269 271 275 278 280 282 282 282 283 284 285 285 285 285 287 287 287 289 289 289 289 289
232 236 238 241 243 241 238 241 249 251 251 253 255 257 260 261 262 265 268 268 269 271 273 275 277 279 280 281 281 283 283 282 285 284 282 282 284 283 285 285 286 288 290 290
235 234 234 239 242 243 243 246 246 250 251 254 254 256 257 259 261 261 262 265 267 269 271 273 277 279 280 284 282 280 278 280 280 279 280 281 282 282 284 285 287 286 288 289
237 237 237 239 242 243 246 247 250 252 254 256 257 257 257 258 260 261 265 269 272 274 276 279 280 281 285 281 279 279 278 279 278 279 279 280 282 284 286 287 288 289 289 287
237 238 240 240 242 243 245 247 250 255 256 256 258 261 264 266 266 269 271 275 280 280 282 286 287 281 278 276 276 279 281 279 279 282 283 280 281 282 283 284 284 285 287 287
237 240 242 242 245 245 244 249 254 256 259 262 265 267 270 272 275 277 279 280 281 284 279 279 277 276 279 279 278 283 282 281 281 280 281 281 280 281 283 284 285 285 286 286
239 243 245 247 248 251 251 252 254 256 259 264 264 266 269 273 277 280 279 279 278 275 272 272 276 281 290 285 284 292 284 280 279 279 279 279 279 279 281 284 283 284 285 284
242 245 249 251 251 252 253 255 257 259 261 263 266 267 267 272 274 277 271 266 264 264 272 270 276 280 274 284 291 278 291 276 276 278 278 278 275 276 280 280 281 280 282 279
242 246 247 249 250 252 254 255 258 260 262 261 264 266 265 269 265 265 263 263 262 270 274 276 273 278 284 297 291 289 287 284 277 275 275 273 274 277 284 283 281 277 281 282
Height
10690 10701 10715 10721 10727 10729 10739 10748 10751 10756 10766 10774 10780 10780 10790 10797 10801 10805 10805 10806 10806 10804 10805 10809 10808 10807 10805 10804 10807 10808 10806 10806 10804 10801 10800 10798 10794 10790 10786 10783 10780 10779 10777 10772
10679 10692 10693 10700 10712 10720 10732 10741 10743 10747 10754 10764 10768 10771 10776 10789 10791 10792 10796 10799 10794 10793 10794 10796 10797 10798 10796 10795 10792 10794 10793 10794 10794 10790 10789 10787 10784 10780 10777 10774 10770 10765 10764 10763
10664 10666 10671 10687 10696 10707 10717 10726 10731 10733 10739 10750 10756 10761 10766 10774 10779 10780 10785 10783 10783 10781 10782 10785 10789 10788 10786 10785 10784 10781 10782 10781 10781 10780 10779 10776 10772 10770 10767 10764 10760 10755 10751 10749
10645 10649 10665 10674 10686 10695 10704 10710 10718 10724 10727 10736 10741 10754 10755 10760 10769 10771 10768 10766 10767 10769 10771 10776 10775 10774 10776 10777 10777 10774 10772 10769 10768 10767 10766 10765 10762 10759 10757 10752 10749 10745 10739 10732
10637 10641 10651 10663 10671 10677 10684 10694 10703 10712 10716 10724 10733 10741 10741 10749 10757 10752 10747 10751 10755 10758 10759 10760 10763 10760 10763 10768 10768 10765 10764 10760 10757 10756 10753 10751 10749 10745 10743 10738 10734 10729 10725 10720
10616 10624 10635 10645 10649 10658 10667 10679 10689 10700 10706 10719 10721 10725 10727 10733 10732 10733 10734 10738 10741 10745 10748 10749 10750 10752 10750 10751 10754 10754 10753 10751 10749 10745 10740 10736 10733 10730 10727 10723 10719 10714 10709 10704
10609 10617 10628 10632 10636 10650 10661 10670 10680 10686 10694 10709 10706 10714 10717 10718 10718 10718 10722 10726 10727 10730 10735 10739 10738 10737 10737 10737 10737 10736 10737 10739 10740 10736 10734 10726 10718 10715 10709 10707 10700 10694 10689 10685
10596 10605 10615 10622 10627 10639 10643 10649 10663 10664 10676 10683 10687 10710 10715 10699 10705 10705 10709 10714 10716 10717 10718 10723 10726 10725 10724 10722 10720 10720 10721 10722 10720 10722 10721 10716 10708 10702 10695 10689 10684 10676 10670 10665
10584 10592 10596 10603 10609 10614 10625 10636 10643 10652 10658 10669 10680 10692 10698 10688 10686 10696 10699 10698 10701 10704 10703 10705 10707 10708 10710 10709 10706 10705 10702 10703 10704 10701 10699 10696 10692 10687 10681 10674 10666 10660 10653 10647
10566 10568 10579 10585 10590 10599 10613 10611 10623 10637 10647 10656 10668 10675 10684 10680 10677 10678 10685 10686 10686 10685 10687 10688 10687 10688 10688 10690 10691 10689 10689 10688 10686 10681 10678 10676 10672 10667 10658 10652 10648 10642 10635 10628
10549 10554 10561 10567 10581 10594 10598 10605 10614 10622 10630 10644 10655 10665 10668 10673 10668 10668 10666 10667 10668 10669 10669 10667 10667 10669 10673 10673 10673 10673 10672 10670 10667 10664 10661 10657 10652 10646 10639 10633 10626 10620 10615 10608
10530 10537 10545 10561 10565 10572 10580 10588 10591 10604 10621 10626 10634 10656 10657 10655 10658 10654 10649 10649 10650 10648 10648 10651 10654 10656 10656 10655 10653 10653 10653 10651 10648 10644 10640 10635 10630 10625 10620 10613 10606 10600 10594 10587
10518 10521 10532 10538 10548 10559 10571 10577 10582 10591 10596 10609 10613 10648 10631 10637 10634 10633 10634 10632 10633 10636 10638 10638 10639 10639 10638 10637 10636 10636 10635 10633 10629 10623 10618 10613 10608 10602 10597 10590 10584 10577 10571 10565
10497 10510 10523 10533 10548 10542 10551 10556 10558 10563 10568 10595 10598 10620 10614 10611 10616 10619 10617 10619 10622 10623 10624 10623 10622 10622 10624 10623 10619 10617 10615 10611 10607 10603 10598 10592 10586 10580 10574 10568 10563 10557 10549 10541
10488 10507 10512 10517 10522 10525 10533 10534 10536 10546 10574 10562 10599 10590 10601 10597 10595 10599 10604 10605 10604 10606 10607 10608 10609 10608 10606 10603 10600 10597 10594 10590 10586 10581 10576 10571 10565 10560 10553 10548 10541 10535 10527 10519
10481 10491 10494 10500 10505 10509 10516 10524 10537 10553 10550 10562 10573 10581 10573 10576 10576 10576 10582 10591 10594 10594 10592 10591 10589 10589 10585 10583 10581 10579 10575 10569 10564 10560 10556 10550 10544 10539 10531 10525 10516 10509 10502 10495
10460 10471 10476 10485 10488 10490 10500 10537 10525 10530 10531 10544 10544 10574 10539 10560 10561 10562 10566 10568 10569 10571 10573 10573 10571 10568 10567 10566 10563 10559 10554 10549 10544 10537 10532 10526 10519 10512 10504 10499 10492 10485 10479 10474
10441 10447 10452 10460 10464 10472 10520 10505 10512 10514 10516 10521 10532 10546 10538 10538 10540 10549 10552 10550 10552 10552 10550 10550 10552 10550 10546 10544 10538 10531 10527 10523 10516 10513 10506 10499 10494 10484 10477 10473 10468 10462 10458 10454
10428 10431 10437 10446 10457 10474 10492 10496 10490 10492 10504 10499 10511 10522 10517 10517 10517 10543 10532 10521 10523 10528 10532 10531 10530 10527 10524 10519 10511 10507 10504 10498 10492 10485 10478 10473 10465 10459 10456 10450 10447 10443 10438 10434
10409 10414 10418 10430 10441 10459 10483 10474 10473 10470 10487 10484 10485 10496 10496 10494 10505 10525 10493 10500 10507 10511 10510 10508 10507 10505 10498 10492 10488 10482 10475 10469 10462 10457 10451 10446 10441 10437 10434 10431 10427 10423 10420 10416
10392 10399 10405 10418 10424 10449 10456 10455 10451 10458 10471 10464 10462 10469 10474 10479 10480 10486 10481 10481 10482 10484 10484 10483 10480 10474 10468 10463 10458 10453 10448 10443 10439 10434 10430 10427 10424 10420 10417 10413 10409 10405 10400 10397
10376 10379 10391 10397 10411 10431 10436 10435 10442 10440 10435 10441 10444 10445 10449 10457 10461 10461 10460 10460 10458 10455 10452 10447 10446 10445 10443 10438 10434 10431 10428 10423 10419 10416 10413 10410 10406 10403 10399 10395 10391 10387 10383 10378
10354 10367 10375 10382 10400 10407 10411 10412 10414 10416 10421 10421 10424 10429 10430 10432 10435 10435 10433 10434 10430 10430 10429 10426 10424 10422 10420 10416 10413 10411 10407 10404 10401 10398 10394 10391 10387 10383 10380 10377 10372 10367 10362 10356
10334 10342 10351 10363 10377 10382 10386 10391 10394 10393 10395 10402 10404 10404 10405 10410 10412 10412 10410 10412 10412 10409 10406 10405 10405 10404 10401 10399 10396 10391 10387 10384 10381 10378 10375 10372 10368 10364 10360 10357 10352 10346 10340 10334
10320 10327 10336 10341 10354 10358 10363 10367 10368 10371 10375 10379 10383 10385 10387 10389 10390 10391 10391 10391 10390 10390 10388 10388 10388 10386 10384 10381 10377 10374 10368 10364 10360 10356 10353 10351 10348 10344 10340 10335 10329 10325 10320 10312
10302 10313 10315 10324 10329 10334 10340 10338 10343 10348 10353 10357 10362 10365 10364 10367 10368 10369 10368 10369 10370 10369 10367 10366 10366 10365 10362 10358 10353 10350 10346 10341 10337 10334 10331 10329 10325 10320 10316 10310 10305 10300 10293 10287